カタログに戻る

FENGYUN 1C DEB

運用中SSO
NORAD 31212·DEBRIS·🇨🇳 China

打ち上げ May 10, 1999 から Taiyuan Satellite Launch Center

Loading…

次のパス (今後24時間)

TLE

最新Source: Space-Track

元期: Sep 13, 2026, 15:13 UTC

1 31212U 99025BKS 26256.63468967  .00001508  00000-0  79168-3 0  9992
2 31212  99.1974 301.1953 0074950 119.8950 240.9695 14.14313729995430

AllMySatでFENGYUN 1C DEBをリアルタイム追跡

Download on the App Store